Theta_e
310 309 309 309 309 310 312 315 318 320 318 316 318 321 325 327 331 334 334 332 332 329 329 330 329 327 326 324 334 335 335 333 330 332 333 335 336 334 333 334 336 334 333
308 307 307 307 307 307 308 309 310 311 314 320 320 320 323 324 326 329 331 328 325 323 328 326 325 325 329 331 334 334 335 334 334 330 335 335 336 334 332 332 331 334 333
307 306 306 306 306 306 306 307 308 308 310 311 321 320 320 322 325 327 327 325 323 322 326 327 327 327 329 327 334 336 336 335 335 336 335 336 335 331 329 332 333 334 332
305 305 305 305 305 305 305 306 307 307 308 310 312 320 322 322 324 326 326 325 324 323 326 322 322 324 328 330 333 335 335 337 336 336 334 333 328 323 319 317 322 330 330
303 303 303 304 304 304 304 304 304 305 307 308 309 310 321 321 323 324 325 324 323 323 321 322 323 325 327 332 332 333 334 335 333 330 323 320 319 317 316 322 328 331 328
301 302 301 302 303 303 303 303 303 305 307 307 308 309 319 320 321 321 322 321 322 324 325 328 331 336 336 335 335 335 334 330 327 324 321 318 319 315 320 325 331 329 326
300 300 300 301 302 302 301 301 302 304 305 304 307 309 311 319 319 320 319 320 321 320 322 331 332 333 334 333 332 328 324 323 322 320 317 315 316 320 323 327 326 329 330
299 299 300 300 300 301 301 301 302 302 303 305 307 311 310 317 318 319 319 319 319 320 322 330 332 332 328 321 318 319 320 321 321 320 323 324 323 325 327 326 326 328 330
299 299 300 300 300 300 300 300 300 301 303 303 304 304 312 317 319 318 320 317 317 319 324 324 322 319 319 321 321 323 322 323 325 326 324 324 324 321 318 318 320 324 325
298 299 299 299 300 300 301 301 300 300 301 302 305 306 308 314 318 319 318 317 316 320 320 321 320 322 324 324 322 322 323 323 324 324 324 323 323 321 318 318 321 327 328
297 298 299 299 300 301 301 301 301 300 300 303 305 306 311 314 318 318 317 317 316 322 321 322 322 320 320 318 317 317 317 320 324 323 322 321 319 318 319 325 330 330 329
297 298 299 300 301 302 302 302 301 300 300 302 304 306 310 316 319 318 318 314 317 321 321 321 320 320 318 317 318 317 318 318 319 321 319 317 317 319 323 330 332 332 329
297 297 299 301 303 303 301 302 301 300 300 302 304 307 311 317 320 321 320 315 320 321 320 320 321 320 318 317 316 315 314 315 316 317 315 314 318 322 326 330 330 331 330
297 298 300 302 302 301 300 302 301 300 300 302 305 309 310 316 318 318 320 318 320 320 320 320 320 320 319 317 314 314 313 314 314 315 315 319 323 325 326 330 330 329 329
296 297 299 303 301 301 300 301 300 300 300 302 306 308 307 311 308 317 318 312 320 319 319 317 315 314 314 314 314 314 316 317 317 317 317 318 321 324 327 330 329 329 328
296 298 300 302 301 300 300 300 300 299 300 302 303 306 307 308 308 317 317 314 314 318 315 313 313 313 314 314 314 314 316 318 317 317 318 318 324 324 328 330 329 328 327
296 299 302 304 302 301 300 300 300 300 299 301 303 304 306 308 308 313 314 317 316 313 314 314 314 314 313 314 313 314 317 317 315 316 320 320 325 325 330 330 328 328 326
297 298 303 306 304 302 302 301 301 301 301 300 301 303 306 306 308 308 315 313 312 316 315 312 312 313 313 313 314 315 316 314 313 314 322 323 324 325 329 329 328 328 326
295 298 302 306 306 305 302 303 303 303 303 302 302 303 305 306 307 308 312 313 314 313 316 314 315 315 315 314 315 316 314 314 313 315 319 324 324 325 327 329 328 328 327
295 300 302 306 308 306 304 304 304 304 304 304 303 304 304 305 306 306 309 313 312 314 314 315 317 316 316 315 315 315 315 314 314 313 317 324 325 325 326 327 327 327 328
295 297 299 303 305 308 306 305 305 306 306 306 304 306 305 307 306 307 308 315 315 314 315 317 317 316 317 316 315 316 314 315 315 314 318 322 325 326 326 328 327 325 325
292 294 296 298 300 301 304 307 308 306 306 306 307 307 308 308 309 308 310 315 316 318 318 317 316 316 317 316 316 314 315 317 318 317 323 325 326 327 328 328 327 326 321
290 292 293 294 296 297 300 308 307 306 306 307 308 308 308 308 308 311 313 315 316 316 316 316 317 316 316 316 315 315 316 319 321 320 321 325 326 329 328 326 325 321 318
289 289 290 291 292 294 295 298 308 306 306 307 307 308 308 308 309 309 310 312 313 314 315 316 316 316 315 315 315 313 312 315 320 325 326 325 328 328 327 325 323 322 318
288 288 288 289 290 291 292 294 296 299 306 306 306 307 307 308 308 308 309 310 311 312 313 313 313 313 313 314 313 313 312 312 317 321 322 324 328 328 326 325 323 321 317
287 287 287 287 287 288 289 291 292 294 296 300 308 306 307 307 307 307 307 308 309 311 312 312 312 312 312 312 312 311 312 314 315 321 322 325 328 327 325 325 324 321 318
Wind_Speed
30 33 34 34 34 30 28 24 24 26 24 24 24 26 32 34 35 32 30 30 25 22 22 25 32 32 34 29 40 33 25 23 6 6 11 14 13 11 9 12 14 16 13
26 28 31 32 32 31 31 36 33 32 28 26 22 23 26 31 31 32 31 26 29 21 14 20 26 32 24 33 35 27 25 23 14 7 11 11 11 11 11 11 12 13 11
25 27 29 30 30 29 30 32 36 38 34 29 25 24 24 28 26 30 32 28 30 27 22 25 32 29 21 29 31 30 20 24 23 17 12 9 8 8 4 1 3 6 6
32 31 31 30 29 29 30 29 32 34 32 30 27 30 28 25 28 27 28 28 30 31 32 28 34 29 33 33 35 27 27 27 26 21 12 10 8 8 4 3 5 5 9
27 28 27 29 30 28 29 30 31 32 32 31 29 26 30 26 27 23 24 26 28 24 28 27 32 28 30 37 30 28 26 24 19 15 7 6 6 6 3 5 4 1 8
27 25 29 30 30 29 26 28 30 30 25 25 27 24 27 23 20 20 17 10 13 13 23 23 24 25 27 24 22 24 25 24 18 12 10 8 8 7 6 5 5 2 1
26 27 29 29 28 27 29 29 29 27 26 28 27 20 25 27 18 12 17 19 25 30 27 25 19 19 21 24 24 22 19 16 17 18 13 10 10 9 8 6 3 5 6
27 28 27 26 26 26 27 27 27 29 27 18 17 17 20 20 23 24 12 13 26 30 28 35 26 25 27 24 21 19 17 15 14 12 9 9 7 8 6 2 2 5 9
26 25 25 25 26 27 27 26 26 25 19 21 28 24 19 18 22 22 25 15 16 21 26 30 31 30 26 25 23 20 17 14 11 8 9 10 10 5 3 5 4 4 2
25 27 28 28 29 28 29 27 26 24 24 23 26 25 23 21 22 21 29 19 19 18 23 28 31 30 26 23 22 19 17 13 12 13 12 8 6 6 8 5 8 8 3
28 28 30 31 31 31 31 29 25 23 23 23 19 23 17 18 19 27 26 23 15 17 27 31 31 28 24 20 18 14 12 10 9 7 6 6 8 8 5 6 6 7 8
28 29 31 33 32 31 32 29 21 19 19 20 16 21 16 8 16 25 20 14 19 31 31 32 27 25 21 21 17 14 11 7 5 8 7 5 9 6 5 1 3 3 7
28 30 32 33 30 22 26 25 17 16 15 16 13 15 11 3 22 16 19 10 33 35 36 34 28 23 22 19 14 12 8 4 4 10 8 6 6 7 7 3 3 6 8
26 28 30 29 22 23 23 16 14 12 12 13 12 8 3 3 18 11 15 10 28 32 36 32 27 22 21 21 16 10 5 3 5 8 5 3 5 5 6 3 1 9 7
27 28 26 16 18 19 18 8 11 14 15 13 10 6 4 7 15 7 13 21 30 34 33 30 30 27 22 17 10 6 3 2 6 8 8 10 11 5 4 3 4 10 7
26 25 23 15 15 15 14 10 8 13 12 14 15 9 2 3 10 11 8 11 26 34 31 27 23 22 19 15 7 3 3 4 7 8 14 14 8 5 4 1 5 8 14
25 27 24 16 13 12 11 7 6 7 9 9 9 15 15 8 11 1 13 19 17 21 26 23 19 17 13 10 4 0 2 4 8 13 9 10 9 6 6 1 5 8 12
27 29 23 17 14 12 9 8 7 7 5 12 14 13 14 21 13 10 18 13 17 13 18 17 14 12 8 3 2 2 1 4 9 15 10 12 11 8 6 1 7 9 11
26 24 26 22 12 12 8 6 8 9 8 9 11 12 12 19 19 17 15 18 18 16 18 14 14 11 8 6 4 3 3 6 9 13 12 14 11 7 6 4 4 11 18
23 25 27 25 14 10 8 6 6 8 8 7 11 11 14 14 15 13 12 17 16 19 21 22 18 15 11 9 8 5 7 11 12 12 13 11 11 8 6 7 6 10 14
22 22 25 21 21 15 8 9 8 7 5 5 12 13 18 12 12 10 16 22 22 25 24 24 21 17 12 11 9 6 8 9 10 9 14 9 9 8 8 6 15 12 15
23 22 22 21 21 20 20 6 3 1 1 6 11 15 13 6 9 12 21 26 26 27 27 25 24 21 17 15 10 7 8 13 15 11 7 6 7 7 5 10 15 11 21
24 24 23 23 23 24 22 4 1 5 5 7 11 15 12 4 7 10 18 19 21 20 21 23 20 19 18 13 9 4 7 13 18 10 11 7 6 4 5 16 17 18 18
27 26 24 24 25 24 23 21 3 4 7 8 12 14 13 9 2 1 6 12 11 12 13 17 17 15 14 11 8 5 8 11 12 7 4 5 4 4 12 16 20 20 21
29 28 27 26 26 24 24 23 20 18 2 9 11 13 20 21 19 16 9 4 4 9 10 10 9 10 11 14 13 13 17 14 13 12 9 7 7 13 19 19 25 26 24
30 29 28 27 27 27 25 23 22 21 17 13 11 16 17 17 22 25 23 21 18 13 9 11 13 14 15 18 19 19 18 16 15 15 11 9 10 17 21 19 24 23 31
Wind_Direction
337 331 327 323 321 321 324 325 316 307 304 307 316 323 312 298 289 274 261 252 236 229 229 233 223 225 240 252 229 204 189 194 175 199 205 200 230 266 254 254 256 272 284
328 324 319 314 309 306 304 303 309 317 318 311 310 316 315 295 287 272 257 237 206 197 184 208 208 212 240 207 206 194 197 191 193 194 195 220 253 253 258 265 274 271 278
318 312 307 301 297 298 297 296 298 299 306 318 304 302 309 303 278 266 250 228 216 217 211 190 181 167 130 223 226 216 193 202 212 210 212 235 228 231 204 63 330 290 292
309 303 301 297 294 294 294 294 295 295 294 299 311 308 297 301 279 267 249 232 235 239 221 199 164 156 139 223 223 223 219 207 205 210 204 200 196 173 149 40 40 356 331
308 303 297 296 292 290 291 291 290 287 283 284 291 305 296 289 281 270 257 236 230 195 177 178 181 178 184 211 210 205 207 197 184 172 146 149 180 203 205 169 133 32 322
305 303 303 299 295 289 289 294 291 288 284 290 287 290 293 284 290 267 262 262 246 260 221 225 238 222 214 203 208 191 183 167 165 163 174 171 201 226 205 183 130 19 320
305 305 302 300 299 295 293 292 290 286 287 286 275 281 283 288 282 279 270 266 264 275 288 262 243 235 199 170 160 155 163 174 191 197 199 195 195 212 212 181 193 201 228
303 296 295 297 298 298 295 293 292 283 281 279 303 276 265 277 283 275 286 283 276 279 274 248 212 188 167 158 156 157 162 166 169 176 173 174 181 202 207 161 236 259 265
293 295 297 297 294 292 287 285 290 292 292 290 290 276 278 264 259 271 257 258 288 293 268 214 167 165 163 162 162 162 167 168 165 176 181 169 168 196 251 265 248 185 270
302 302 301 297 287 282 279 279 280 285 283 272 278 261 252 256 245 253 253 265 274 284 201 181 169 161 158 156 157 158 154 155 156 165 179 200 239 258 265 293 256 213 159
302 299 293 290 285 283 281 272 269 274 282 267 261 288 262 244 248 230 219 244 216 239 180 169 166 155 153 152 153 147 136 156 174 211 232 260 271 260 268 274 241 228 168
300 297 294 292 288 285 277 271 257 261 274 281 252 268 274 260 229 206 217 247 187 198 183 172 159 156 155 150 151 148 150 167 207 244 254 295 292 280 316 301 228 214 185
307 302 298 298 300 307 299 272 240 251 259 266 234 245 278 244 187 205 207 171 180 198 170 162 160 165 162 158 157 153 144 189 255 265 274 276 285 306 328 267 262 158 160
303 301 302 308 313 316 315 274 237 247 256 265 225 228 354 8 175 149 173 189 181 179 158 160 167 172 173 159 153 154 147 218 235 273 284 295 291 285 317 309 298 168 161
309 304 305 307 317 322 327 300 258 254 258 252 229 186 65 33 22 195 162 170 178 174 157 149 145 144 145 150 164 133 84 243 268 282 279 261 269 298 339 327 146 145 135
307 306 309 306 327 329 337 337 299 274 275 267 248 242 107 15 356 177 190 167 152 157 144 142 147 153 159 165 157 79 38 317 316 314 261 255 259 302 291 130 114 140 151
307 308 310 300 315 314 326 323 320 317 259 283 252 241 225 276 347 141 171 181 163 145 140 153 159 168 169 170 166 260 319 325 352 344 300 246 251 271 238 58 69 142 161
317 315 317 304 303 301 312 304 288 281 225 248 245 247 219 229 288 326 211 188 169 184 169 177 181 191 199 220 261 303 278 331 351 353 315 238 246 264 247 147 133 163 181
318 318 318 311 298 290 293 301 286 276 276 223 229 237 230 226 252 300 225 212 204 195 185 194 198 200 211 224 245 175 266 323 344 338 304 242 256 264 273 270 228 173 182
323 326 333 330 291 278 278 271 278 280 288 207 206 202 207 228 255 284 223 195 193 200 202 201 206 207 212 227 217 214 286 315 308 303 317 262 257 272 286 268 237 168 182
336 336 338 343 344 321 268 274 270 290 278 187 191 191 196 210 246 259 193 186 189 201 198 203 208 211 209 208 205 249 298 313 321 306 310 281 268 299 301 271 166 152 150
347 345 347 345 344 344 333 245 288 127 132 162 171 170 180 261 259 212 186 186 199 204 209 210 214 216 205 204 224 260 300 321 322 303 288 260 290 304 291 170 158 157 156
358 357 357 355 355 356 1 340 179 138 120 147 152 163 175 180 87 149 153 168 192 201 209 214 215 207 204 219 227 265 333 349 334 307 265 263 297 279 194 167 165 151 147
6 5 3 0 1 4 3 1 345 146 152 163 180 198 216 228 230 99 114 143 147 135 155 190 199 202 202 200 212 245 328 337 334 343 242 276 249 197 167 165 161 162 156
10 9 8 7 5 4 3 5 8 16 234 193 200 212 222 239 250 257 255 236 174 177 179 172 181 191 206 219 238 275 292 287 276 278 269 269 240 191 170 170 168 161 163
13 12 10 9 8 6 6 4 4 6 4 7 223 215 215 222 232 241 251 255 250 248 233 222 228 240 248 258 272 283 283 275 268 251 253 252 230 203 186 172 184 168 166